Regional Weather Roundup
Issued by NWS Newport/Morehead, NC

Current Version | Previous Version | Graphics & Text | Print | Product List | Glossary On
Versions: 1 2 3 4 5 6 7 8 9 10 11 12 13 14 15 16 17 18 19 20 21 22 23 24 25 26 27 28 29 30 31 32 33 34 35 36 37 38 39 40 41 42 43 44 45 46 47 48 49 50
000 ASUS42 KMHX 021325 RWRMHX WEATHER ROUNDUP FOR EASTERN NORTH CAROLINA NATIONAL WEATHER SERVICE NEWPORT/MOREHEAD CITY NC 900 AM EDT TUE JUN 02 2015 NOTE: "FAIR" INDICATES FEW OR NO CLOUDS BELOW 12,000 FEET WITH NO SIGNIFICANT WEATHER AND/OR OBSTRUCTIONS TO VISIBILITY NCZ015>017-031-032-045>047-102-103-021400- NORTH COAST CITY SKY/WX TMP DP RH WIND PRES REMARKS EDENTON MOSUNNY 78 71 78 S9 30.02S ELIZABETH CITY MOSUNNY 79 72 79 S10 30.02R KITTY HAWK SUNNY 79 70 73 S5 30.02R MANTEO SUNNY 78 69 73 SW9 30.03S $$ NCZ045>047-081-094-103-104-021400- CENTRAL COAST CITY SKY/WX TMP DP RH WIND PRES REMARKS FRISCO SUNNY 78 69 73 SW7 30.05R SWANQUARTER N/A 79 N/A N/A SW12 30.00S $$ NCZ095-097-098-100-101-021400- SOUTHERN COAST CITY SKY/WX TMP DP RH WIND PRES REMARKS BEAUFORT PTSUNNY 78 72 81 S12 30.04R CEDAR ISLAND N/A 82 N/A N/A S7 30.09R JACKSONVILLE MOSUNNY 78 69 73 SW7 30.03R PINEY ISLAND MOSUNNY N/A N/A N/A SW7 30.04R WILMINGTON PTSUNNY 78 70 76 SW7 30.03S $$ NCZ011>013-027>030-043-044-078>080-089-090>093-098-021400- COASTAL PLAIN CITY SKY/WX TMP DP RH WIND PRES REMARKS AHOSKIE PTSUNNY 73 69 86 CALM 30.02R CLINTON PTSUNNY 76 70 81 SW3 30.03S ELIZABETHTOWN CLOUDY 77 69 75 SW5 30.03S GOLDSBORO MOSUNNY 76 70 81 CALM 30.00S GREENVILLE MOSUNNY 77 70 78 S6 30.03S HAVELOCK PTSUNNY 80 70 71 SW9 30.04S KENANSVILLE MOSUNNY 76 68 75 SW3 30.03S KINSTON MOSUNNY 79 70 73 SW7 30.03R NEW BERN MOSUNNY 79 71 76 SW9 30.04R RICHLANDS MOSUNNY 82 68 61 S9 30.04R ROCKY MOUNT MOSUNNY 77 70 79 S7 30.01S WASHINGTON MOSUNNY 77 71 81 S6 30.03S WHITEVILLE CLOUDY 77 70 80 SW5 30.03R $$ AMZ130-135-150-152-154-156-158-170-250-252-270-ANZ085-086-088-633-658-670-021400- MARINE OBSERVATIONS STATION/POSITION TIME TEMP WIND PRES WAVE SWELL AIR SEA DIR/SP/G HT/PER HT/PER (UTC) (F) (DEG/KT/KT) (MB) (FT/S) (FT/S) CHESAPEAKE LIGHT 1300 69 190/ 17/ 17 1016.6 64 E VA BEACH 1250 73 70 170/ 6/ 8 1016.5 3/ 9 3/ 9 DUCK 1300 76 54 190/ 10/ 14 1015.7 2 E DUCK 1211 61 N/A 2/ 8 OREGON INLET 1300 77 77 190/ 8/ 10 1017.0 13E OREGON INLT 1300 76 N/A 3/ 9 HATTERAS CG 1300 78 78 200/ 7/ 9 1016.9 DIAMOND BUOY 1250 78 81 230/ 6/ 8 1017.4 3/ 8 3/ 8 CAPE LOOKOUT 1300 78 200/ 9/ 11 1017.1 BEAUFORT LAB 1300 78 77 200/ 8/ 11 1016.4 30 SE NEW RVR IN 1208 77 77 200/ 4/ 6 1017.5 27 SE WRIGHTSVLE 1300 77 200/ 6/ 6 N/A 5 SE WRIGHTSVLE 1208 76 78 270/ 8/ 12 1016.9 225 S CAPE HAT 1250 77 77 CALM / 2 1018.2 4/ 8 3/ 8 41 SE CHARLESTON 1250 78 80 170/ 2/ 4 1016.8 3/ 8 3/ 8 $$

USA.gov is the U.S. government's official web portal to all federal, state and local government web resources and services.